ZKDAY YMRB-YMCL

Flight info

Callsign ZKDAY
Flight time 0h 31m
Altitude 4500
Route DCT
Aircraft C172/L-VGD/C

Departure

Time 2026-04-14 20:43
Airport Moranbah Airport (YMRB)

Arrival

Time 2026-04-14 21:15
Airport Mount Coolon Airport (YMCL)
Time Latitude Longitude Altitude Speed Heading
2026-04-14 20:41 -22.05161 148.07498 734 ft 0 kts 332°
2026-04-14 20:41 -22.05155 148.07497 734 ft 0 kts 350°
2026-04-14 20:42 -22.05138 148.07509 734 ft 9 kts 88°
2026-04-14 20:42 -22.05214 148.07540 735 ft 31 kts 173°
2026-04-14 20:42 -22.06083 148.07674 995 ft 72 kts 167°
2026-04-14 20:43 -22.06585 148.07754 1172 ft 76 kts 165°
2026-04-14 20:43 -22.07077 148.07932 1406 ft 78 kts 130°
2026-04-14 20:43 -22.06976 148.08504 1609 ft 86 kts 46°
2026-04-14 20:43 -22.06682 148.08920 1921 ft 69 kts 76°
2026-04-14 20:44 -22.06440 148.09388 2093 ft 79 kts 49°
2026-04-14 20:44 -22.05808 148.09443 2291 ft 99 kts
2026-04-14 20:44 -22.05125 148.09293 2434 ft 101 kts
2026-04-14 20:44 -22.04462 148.09171 2669 ft 93 kts
2026-04-14 20:45 -22.03826 148.09035 2856 ft 93 kts
2026-04-14 20:45 -22.03195 148.08912 3047 ft 93 kts
2026-04-14 20:45 -22.02562 148.08791 3252 ft 93 kts
2026-04-14 20:45 -22.01935 148.08657 3452 ft 91 kts
2026-04-14 20:46 -22.01313 148.08532 3641 ft 91 kts
2026-04-14 20:46 -22.00682 148.08416 3809 ft 93 kts
2026-04-14 20:46 -22.00097 148.08016 3978 ft 109 kts 322°
2026-04-14 20:46 -21.99605 148.07410 4158 ft 106 kts 324°
2026-04-14 20:47 -21.99115 148.06822 4322 ft 105 kts 324°
2026-04-14 20:47 -21.98637 148.06241 4479 ft 107 kts 324°
2026-04-14 20:47 -21.98108 148.05606 4497 ft 120 kts 323°
2026-04-14 20:47 -21.97536 148.04911 4499 ft 128 kts 322°
2026-04-14 20:48 -21.96938 148.04178 4496 ft 132 kts 321°
2026-04-14 20:48 -21.96327 148.03428 4494 ft 134 kts 321°
2026-04-14 20:48 -21.95710 148.02670 4497 ft 135 kts 321°
2026-04-14 20:48 -21.95088 148.01907 4497 ft 136 kts 320°
2026-04-14 20:49 -21.94464 148.01142 4496 ft 136 kts 320°
2026-04-14 20:49 -21.93836 148.00373 4497 ft 137 kts 320°
2026-04-14 20:49 -21.93209 147.99602 4498 ft 137 kts 320°
2026-04-14 20:49 -21.92589 147.98844 4501 ft 137 kts 320°
2026-04-14 20:50 -21.91961 147.98074 4501 ft 137 kts 320°
2026-04-14 20:50 -21.91332 147.97303 4503 ft 137 kts 320°
2026-04-14 20:50 -21.90704 147.96533 4502 ft 137 kts 321°
2026-04-14 20:50 -21.90074 147.95761 4499 ft 137 kts 321°
2026-04-14 20:51 -21.89445 147.94991 4506 ft 137 kts 321°
2026-04-14 20:51 -21.88815 147.94220 4500 ft 137 kts 321°
2026-04-14 20:51 -21.88188 147.93450 4499 ft 137 kts 321°
2026-04-14 20:51 -21.87568 147.92691 4498 ft 137 kts 321°
2026-04-14 20:52 -21.86935 147.91917 4501 ft 138 kts 321°
2026-04-14 20:52 -21.86300 147.91139 4500 ft 138 kts 320°
2026-04-14 20:52 -21.85663 147.90360 4502 ft 139 kts 320°
2026-04-14 20:52 -21.85022 147.89577 4501 ft 140 kts 320°
2026-04-14 20:53 -21.84383 147.88793 4500 ft 139 kts 320°
2026-04-14 20:53 -21.83745 147.88013 4505 ft 139 kts 320°
2026-04-14 20:53 -21.83105 147.87231 4505 ft 139 kts 320°
2026-04-14 20:53 -21.82463 147.86446 4502 ft 140 kts 320°
2026-04-14 20:54 -21.81831 147.85672 4494 ft 139 kts 320°
2026-04-14 20:54 -21.81192 147.84891 4498 ft 139 kts 320°
2026-04-14 20:54 -21.80555 147.84111 4497 ft 138 kts 320°
2026-04-14 20:54 -21.79918 147.83333 4497 ft 139 kts 320°
2026-04-14 20:55 -21.79280 147.82554 4500 ft 139 kts 320°
2026-04-14 20:55 -21.78641 147.81774 4497 ft 140 kts 320°
2026-04-14 20:55 -21.77997 147.80988 4498 ft 140 kts 319°
2026-04-14 20:55 -21.77353 147.80201 4494 ft 140 kts 320°
2026-04-14 20:56 -21.76720 147.79428 4496 ft 139 kts 320°
2026-04-14 20:56 -21.76082 147.78648 4493 ft 139 kts 320°
2026-04-14 20:56 -21.75445 147.77872 4493 ft 138 kts 320°
2026-04-14 20:56 -21.74814 147.77100 4502 ft 137 kts 320°
2026-04-14 20:57 -21.74189 147.76336 4497 ft 135 kts 320°
2026-04-14 20:57 -21.73570 147.75579 4489 ft 135 kts 320°
2026-04-14 20:57 -21.72948 147.74821 4489 ft 136 kts 320°
2026-04-14 20:57 -21.72322 147.74059 4493 ft 136 kts 320°
2026-04-14 20:58 -21.71697 147.73295 4489 ft 136 kts 320°
2026-04-14 20:58 -21.71084 147.72547 4487 ft 135 kts 320°
2026-04-14 20:58 -21.70461 147.71788 4486 ft 136 kts 320°
2026-04-14 20:58 -21.69835 147.71025 4489 ft 136 kts 320°
2026-04-14 20:59 -21.69210 147.70269 4490 ft 135 kts 320°
2026-04-14 20:59 -21.68589 147.69514 4489 ft 135 kts 320°
2026-04-14 20:59 -21.67969 147.68759 4494 ft 135 kts 320°
2026-04-14 20:59 -21.67345 147.68002 4489 ft 136 kts 318°
2026-04-14 21:00 -21.67005 147.67025 4482 ft 145 kts 282°
2026-04-14 21:00 -21.66786 147.65977 4481 ft 143 kts 289°
2026-04-14 21:00 -21.66622 147.64933 4482 ft 144 kts 281°
2026-04-14 21:00 -21.66367 147.63919 4485 ft 137 kts 307°
2026-04-14 21:01 -21.65771 147.63152 4493 ft 133 kts 322°
2026-04-14 21:01 -21.65130 147.62437 4493 ft 133 kts 322°
2026-04-14 21:01 -21.64482 147.61719 4494 ft 134 kts 322°
2026-04-14 21:01 -21.63833 147.60998 4494 ft 134 kts 321°
2026-04-14 21:02 -21.63185 147.60280 4490 ft 134 kts 321°
2026-04-14 21:02 -21.62538 147.59563 4492 ft 134 kts 321°
2026-04-14 21:02 -21.61892 147.58846 4489 ft 134 kts 321°
2026-04-14 21:02 -21.61253 147.58138 4492 ft 134 kts 321°
2026-04-14 21:03 -21.60607 147.57421 4489 ft 134 kts 321°
2026-04-14 21:03 -21.59953 147.56697 4455 ft 137 kts 321°
2026-04-14 21:03 -21.59265 147.55940 4288 ft 145 kts 321°
2026-04-14 21:03 -21.58557 147.55158 4125 ft 147 kts 322°
2026-04-14 21:04 -21.57841 147.54365 3958 ft 149 kts 322°
2026-04-14 21:04 -21.57122 147.53568 3788 ft 149 kts 322°
2026-04-14 21:04 -21.56397 147.52764 3622 ft 151 kts 322°
2026-04-14 21:04 -21.55662 147.51951 3454 ft 152 kts 323°
2026-04-14 21:05 -21.54933 147.51144 3293 ft 153 kts 323°
2026-04-14 21:05 -21.54190 147.50321 3118 ft 154 kts 323°
2026-04-14 21:05 -21.53447 147.49497 2983 ft 153 kts 323°
2026-04-14 21:05 -21.52709 147.48679 2862 ft 152 kts 323°
2026-04-14 21:06 -21.51978 147.47869 2741 ft 151 kts 324°
2026-04-14 21:06 -21.51249 147.47062 2618 ft 150 kts 323°
2026-04-14 21:06 -21.50518 147.46255 2498 ft 152 kts 323°
2026-04-14 21:06 -21.49796 147.45452 2486 ft 147 kts 323°
2026-04-14 21:07 -21.49096 147.44677 2487 ft 147 kts 323°
2026-04-14 21:07 -21.48384 147.43889 2487 ft 147 kts 323°
2026-04-14 21:07 -21.47675 147.43105 2482 ft 146 kts 322°
2026-04-14 21:07 -21.46972 147.42328 2481 ft 145 kts 322°
2026-04-14 21:08 -21.46271 147.41553 2481 ft 144 kts 322°
2026-04-14 21:08 -21.45571 147.40780 2485 ft 144 kts 322°
2026-04-14 21:08 -21.44872 147.40008 2485 ft 145 kts 322°
2026-04-14 21:08 -21.44169 147.39232 2482 ft 145 kts 322°
2026-04-14 21:09 -21.43476 147.38466 2480 ft 145 kts 322°
2026-04-14 21:09 -21.42774 147.37689 2484 ft 145 kts 322°
2026-04-14 21:09 -21.42070 147.36911 2479 ft 146 kts 322°
2026-04-14 21:09 -21.41366 147.36136 2482 ft 144 kts 322°
2026-04-14 21:10 -21.40684 147.35344 2485 ft 145 kts 319°
2026-04-14 21:10 -21.40006 147.34545 2463 ft 145 kts 320°
2026-04-14 21:10 -21.39324 147.33748 2451 ft 144 kts 321°
2026-04-14 21:10 -21.38592 147.33061 2462 ft 133 kts 334°
2026-04-14 21:11 -21.37881 147.32518 2309 ft 122 kts 336°
2026-04-14 21:11 -21.37178 147.32059 2185 ft 117 kts 341°
2026-04-14 21:11 -21.36461 147.31662 2106 ft 114 kts 349°
2026-04-14 21:11 -21.35838 147.31820 2028 ft 89 kts 65°
2026-04-14 21:12 -21.35956 147.32400 1955 ft 92 kts 133°
2026-04-14 21:12 -21.36604 147.32646 1812 ft 110 kts 170°
2026-04-14 21:12 -21.37279 147.32230 1808 ft 124 kts 233°
2026-04-14 21:12 -21.37581 147.31404 1801 ft 113 kts 239°
2026-04-14 21:13 -21.37927 147.30671 1803 ft 110 kts 236°
2026-04-14 21:13 -21.38434 147.30227 1766 ft 91 kts 169°
2026-04-14 21:13 -21.38989 147.30415 1687 ft 81 kts 148°
2026-04-14 21:14 -21.39383 147.31421 1261 ft 83 kts 80°
2026-04-14 21:14 -21.39203 147.31996 1044 ft 77 kts 68°
2026-04-14 21:14 -21.38998 147.32460 844 ft 68 kts 74°
2026-04-14 21:14 -21.38806 147.32882 784 ft 51 kts 68°
2026-04-14 21:15 -21.38725 147.33074 787 ft 3 kts 164°
2026-04-14 21:15 -21.38744 147.33029 785 ft 11 kts 255°
2026-04-14 21:15 -21.38789 147.32931 782 ft 17 kts 242°
2026-04-14 21:15 -21.38854 147.32811 780 ft 20 kts 242°
2026-04-14 21:16 -21.38904 147.32684 777 ft 16 kts 247°
2026-04-14 21:16 -21.38929 147.32649 776 ft 0 kts 126°